Wind_Speed
20 20 20 21 22 24 26 27 27 27 27 27 26 25 24 23 23 22 22 21 21 20 20 19 19 18 18 19 19 19 20 20 20 20 19 18 17 16 16 15 15 14 13 13 13 13 13 13 13 14 14 14 14 15 14 14 14 13 12 11 8 4 3 4 5 6 6 5 3 3 4 4 4 5 6 7 6 6 6 7 8 8 6 5 4 5 5 6
21 21 21 22 22 24 25 26 26 26 26 26 25 25 24 23 22 22 22 22 22 21 21 20 19 18 19 19 19 19 19 20 19 18 17 17 16 16 15 15 14 14 13 13 12 12 13 14 13 13 14 14 14 14 14 14 13 13 13 12 9 5 5 6 6 7 7 5 5 5 4 4 4 4 6 7 7 7 8 8 9 9 7 6 6 6 7 6
22 22 22 22 23 23 24 25 26 26 26 26 26 25 24 22 22 21 22 22 22 22 21 20 19 19 19 19 19 19 19 19 18 17 16 16 15 15 15 14 14 13 13 12 11 10 11 12 13 13 14 14 15 15 14 13 13 13 12 12 11 7 7 8 6 8 9 9 7 6 6 4 2 3 4 6 7 7 7 8 9 8 7 7 8 7 7 7
24 23 23 23 24 23 23 24 26 27 27 27 26 25 24 23 22 22 22 23 23 23 22 20 19 19 20 20 20 19 18 17 16 16 15 15 15 14 14 14 14 13 13 13 12 11 10 11 13 14 14 15 15 15 14 13 13 13 13 12 12 10 9 9 8 9 12 13 9 6 7 6 3 3 4 6 7 5 6 8 8 8 8 9 9 9 9 8
27 25 24 24 24 24 23 24 26 27 27 27 26 26 25 24 23 22 22 23 24 23 22 20 19 20 20 20 19 19 18 16 15 16 15 14 14 14 14 14 14 13 13 13 12 13 11 10 13 14 14 15 15 15 14 13 13 13 14 15 14 12 11 11 11 11 13 14 10 7 8 6 3 4 6 7 6 6 8 8 8 9 10 10 10 10 9 9
29 27 26 25 25 25 24 24 26 27 27 27 27 26 25 24 23 23 23 23 24 24 22 20 20 20 20 20 19 19 17 14 14 16 15 14 14 13 13 13 13 13 13 13 13 12 12 11 12 13 13 14 13 14 14 14 14 14 15 16 15 13 12 12 12 11 12 13 11 8 8 7 5 5 7 6 6 8 9 7 6 7 8 9 9 9 8 8
30 29 27 26 26 26 25 25 26 26 27 27 26 26 26 25 24 23 23 24 24 24 22 20 20 21 21 20 19 19 17 14 13 16 15 15 14 13 13 13 13 14 13 14 14 13 13 12 12 12 12 12 12 13 14 14 14 14 15 16 16 15 14 13 12 11 11 11 11 10 8 8 8 7 6 4 5 9 9 8 8 6 6 6 7 8 9 9
31 30 28 27 27 26 25 25 26 26 26 26 26 26 26 26 25 24 23 24 24 24 22 21 21 22 21 20 19 19 18 14 13 15 15 14 14 13 13 13 13 14 14 14 14 14 14 13 13 14 13 13 12 12 13 14 14 16 16 16 16 16 15 14 13 13 13 12 11 11 10 10 9 8 7 5 6 10 9 9 9 8 7 6 6 7 8 10
31 31 30 28 27 27 26 25 25 25 26 26 26 26 26 26 25 24 23 23 24 24 23 21 21 22 21 20 20 19 18 15 12 14 16 14 14 14 13 13 13 14 14 14 14 14 14 15 16 16 15 14 13 12 13 13 13 15 17 16 15 13 13 12 12 13 12 12 12 11 11 11 10 9 7 6 9 11 9 8 8 8 8 7 7 7 8 9
30 31 30 29 28 27 26 25 25 25 25 26 26 26 26 26 25 24 23 23 23 23 23 22 22 22 21 21 21 18 18 17 13 12 15 15 14 14 14 14 14 14 14 14 14 14 14 16 17 17 16 14 14 13 13 12 12 14 15 15 14 12 12 12 12 12 12 12 13 12 12 12 12 9 5 5 9 11 9 8 8 8 7 7 7 8 9 10
29 30 30 30 28 27 26 25 24 24 24 25 25 26 26 25 25 24 24 23 23 23 23 22 22 23 22 22 21 17 17 18 15 12 13 15 15 14 14 14 14 15 14 14 14 14 14 15 16 17 16 15 15 14 12 12 13 13 13 12 12 12 13 13 12 12 12 12 12 11 12 14 12 6 2 6 9 11 11 10 9 9 8 8 8 9 10 10
28 29 30 30 29 28 27 25 24 23 23 23 24 24 25 24 24 24 23 23 23 23 23 22 22 23 23 22 20 18 17 18 18 14 12 13 15 15 14 14 15 14 14 13 13 14 14 15 15 15 15 15 15 13 11 12 13 12 13 13 13 13 13 13 12 12 11 11 11 11 13 14 11 4 4 8 9 10 11 10 9 10 10 10 10 10 10 10
27 28 29 29 29 28 27 26 25 23 22 22 22 23 23 24 23 23 23 23 23 23 23 23 23 23 23 22 20 20 19 18 19 17 13 12 13 15 15 14 14 14 14 14 13 13 14 14 14 14 15 15 14 12 10 11 13 12 13 14 14 13 12 11 10 11 11 10 10 11 12 11 7 5 7 7 8 9 9 9 9 9 11 11 12 12 11 11
26 28 28 28 29 28 27 26 25 24 22 21 21 22 22 23 23 23 23 24 23 23 24 24 23 23 23 22 22 22 21 19 19 19 16 13 12 13 15 15 14 14 14 14 13 13 14 14 14 15 15 14 13 12 9 8 10 12 12 13 14 13 11 10 9 10 10 9 9 11 13 9 4 8 10 8 8 9 9 9 10 10 11 13 13 13 12 11
25 27 28 28 28 28 27 26 25 24 23 22 22 22 22 22 22 23 24 24 24 23 24 24 23 24 24 23 23 23 23 21 18 18 18 16 13 12 13 15 14 14 14 13 14 14 14 14 14 14 15 14 11 10 9 7 8 11 11 10 12 12 11 9 8 10 9 8 9 11 12 9 7 11 12 11 11 11 11 11 11 12 13 13 14 14 13 13
24 26 27 28 28 28 27 27 26 25 25 24 23 22 22 23 23 24 24 24 23 24 24 24 24 24 24 23 24 25 24 22 19 17 17 17 15 14 13 13 14 14 14 14 14 14 14 14 15 15 15 14 11 9 10 8 8 10 10 8 8 9 10 10 9 10 10 9 9 11 13 11 9 11 13 13 13 12 12 12 13 14 14 15 15 15 14 13
23 25 26 27 28 28 28 28 27 26 25 24 24 23 23 23 23 24 24 24 24 25 25 25 25 25 23 24 26 26 24 22 21 18 16 16 17 16 14 13 13 14 14 14 14 14 15 15 15 15 15 13 11 11 10 9 9 10 9 8 7 7 8 9 9 9 11 10 10 12 17 17 12 12 15 16 15 15 15 14 14 16 16 17 17 15 14 13
24 24 25 26 27 27 27 27 27 26 26 25 25 24 24 23 23 23 24 24 25 25 25 25 27 25 23 26 27 25 23 22 21 19 17 16 17 15 14 13 13 14 14 14 14 15 15 15 15 15 15 14 13 14 12 7 6 6 6 7 7 7 7 8 9 10 12 12 12 14 18 18 15 15 16 17 18 19 19 17 17 18 18 18 18 17 15 13
26 25 25 25 25 26 26 26 26 27 26 26 26 25 24 24 23 23 24 25 26 27 27 27 30 27 22 24 25 23 23 23 22 21 18 16 16 16 15 14 14 14 15 15 15 15 16 16 17 17 17 16 15 16 13 6 2 2 4 5 6 8 8 8 10 12 13 14 16 18 21 21 18 17 16 17 20 22 22 20 18 18 18 18 18 18 16 14
27 26 25 25 25 25 25 26 26 26 26 26 25 25 25 26 26 26 26 27 27 28 29 28 30 29 22 19 22 23 22 23 22 21 20 18 17 17 16 16 16 15 15 15 15 16 16 17 18 18 16 16 16 15 13 9 6 5 4 5 6 8 8 8 9 10 11 14 17 19 22 24 22 19 16 16 19 23 23 21 19 17 16 16 16 16 15 15
29 27 26 25 25 25 25 25 26 25 25 25 24 25 26 27 27 27 27 27 26 28 29 27 27 28 25 17 17 22 22 22 22 21 21 20 19 18 18 17 17 17 16 16 15 15 17 18 18 16 14 15 15 15 15 14 13 12 9 8 9 9 9 8 9 10 11 15 18 20 24 25 23 21 18 17 19 20 19 19 18 16 15 15 14 12 12 13
29 29 28 27 26 25 25 25 25 25 25 24 24 25 25 26 25 24 24 26 27 27 27 27 25 25 27 20 15 19 22 22 22 23 23 22 21 19 18 18 17 16 17 17 17 16 17 18 16 14 15 15 13 14 16 16 17 16 15 13 11 10 11 10 11 13 15 18 20 22 26 27 24 23 22 18 18 17 16 17 17 15 15 15 14 13 13 14
29 29 29 28 28 27 26 25 25 25 24 24 25 24 23 24 23 22 22 24 25 26 26 27 25 22 24 25 19 17 21 22 22 23 24 23 22 20 19 19 16 16 18 18 18 19 17 15 15 16 16 16 14 13 14 15 17 17 18 17 15 14 13 11 12 14 16 17 20 22 27 29 25 24 24 19 18 19 17 17 16 15 15 14 14 15 16 16
28 29 29 29 28 28 28 26 26 25 24 24 23 23 23 22 22 22 22 22 23 26 27 26 25 23 22 25 25 19 18 21 22 22 24 24 22 21 20 18 17 18 18 17 17 18 15 12 14 17 17 16 16 16 15 15 16 17 18 18 17 16 14 13 13 14 17 17 20 23 27 30 28 25 23 18 16 19 18 17 16 15 15 14 14 15 15 17
27 28 29 29 28 28 27 27 26 26 25 25 23 24 23 22 22 22 20 21 22 24 26 27 26 25 24 24 26 25 21 20 21 22 22 23 23 23 21 19 19 19 18 16 15 16 16 14 13 15 16 17 18 18 18 17 17 17 17 17 15 13 12 13 13 15 17 16 18 18 15 20 28 25 22 19 16 17 17 16 16 15 15 14 13 13 14 17
27 28 29 29 29 28 27 27 27 26 26 26 24 24 24 23 22 21 20 17 19 24 27 29 28 27 27 26 25 28 25 21 22 22 23 24 24 23 22 21 21 19 17 15 14 15 16 15 13 13 14 16 18 18 18 18 18 18 17 15 13 11 12 14 14 15 14 12 15 14 8 15 31 30 24 22 20 18 18 16 16 17 17 15 13 14 15 16
25 27 28 29 30 30 29 28 27 28 27 26 26 25 24 24 22 22 19 8 12 25 28 29 31 29 29 28 28 28 26 25 24 23 23 24 25 24 23 23 22 19 18 16 16 17 16 16 15 15 15 15 16 14 15 16 16 16 14 12 10 9 10 10 11 12 13 15 18 18 13 14 28 32 26 25 24 20 19 18 18 20 19 17 15 16 17 17
23 23 25 28 29 30 30 29 28 28 27 26 27 26 25 24 22 23 17 3 5 20 26 29 31 29 29 29 29 30 27 26 25 25 25 23 24 25 24 24 22 19 19 20 20 18 17 17 18 18 17 16 15 12 11 13 13 13 12 11 10 10 11 10 10 11 13 16 16 17 14 9 21 34 31 29 30 24 20 20 20 21 20 18 16 16 15 11
24 22 22 24 27 29 30 30 28 26 26 27 26 26 26 24 22 21 12 3 7 15 21 29 31 29 29 30 31 33 31 27 25 25 26 24 23 25 24 23 22 20 20 21 21 19 16 17 18 19 20 19 17 15 14 13 12 12 11 10 11 11 11 9 9 11 11 13 16 17 16 10 16 34 35 30 31 28 24 23 22 20 18 14 12 12 10 5
26 24 23 23 26 27 29 29 27 25 25 26 26 26 25 24 26 20 7 8 15 14 18 26 31 32 31 32 33 34 33 30 26 24 26 26 24 23 23 23 23 24 23 22 21 20 17 16 17 18 19 19 18 17 16 15 15 14 11 11 10 10 10 9 10 11 8 9 13 15 18 14 11 24 34 31 27 25 22 19 18 18 16 12 9 9 10 8
28 27 24 24 24 25 27 27 27 27 25 26 26 27 26 26 27 17 6 15 19 15 19 24 29 34 32 34 36 35 35 31 27 25 26 28 26 25 25 24 25 24 23 24 23 23 22 19 19 19 19 19 18 17 16 15 16 15 12 10 9 7 7 8 9 8 5 5 6 7 13 16 14 17 25 25 22 19 17 16 18 18 16 14 10 10 13 17
30 30 27 26 24 24 26 26 27 27 26 28 26 27 29 25 22 18 15 20 15 13 23 24 26 33 32 33 34 33 35 33 30 29 26 26 27 28 28 27 28 23 21 24 24 24 25 25 23 22 21 21 18 16 15 15 16 14 12 11 8 3 2 4 5 3 7 9 7 6 8 16 27 29 28 28 26 22 18 18 18 16 15 15 13 14 18 21
30 31 31 29 27 25 25 25 27 27 27 29 28 30 32 19 18 30 28 21 10 9 22 24 22 28 30 32 33 31 32 32 32 32 28 25 25 27 28 29 30 26 23 24 25 23 21 23 27 27 24 23 21 19 17 16 16 16 17 15 11 5 2 3 4 1 7 10 8 9 9 16 28 28 21 18 18 19 20 20 20 19 17 15 13 13 14 13
32 32 31 31 31 29 26 24 25 27 28 30 30 32 30 18 23 37 32 21 11 8 18 24 21 24 27 30 32 32 31 30 31 32 32 29 27 28 29 30 31 30 25 21 22 25 19 16 23 27 25 25 25 24 21 17 16 17 18 18 18 15 8 4 3 3 5 4 6 10 9 11 14 9 2 2 4 9 10 9 10 11 11 10 8 9 12 15
32 34 31 31 34 32 29 27 26 26 28 31 34 34 32 28 29 34 32 25 17 12 18 22 21 24 26 26 29 31 31 30 29 30 31 33 33 32 32 32 32 31 29 23 19 21 20 17 17 17 19 22 22 22 23 21 19 17 17 20 23 23 18 8 5 7 4 3 4 11 14 18 20 17 14 8 8 11 13 15 16 16 17 15 14 17 20 22
28 32 31 30 34 34 32 32 30 29 30 33 36 37 39 36 27 26 31 29 22 17 18 20 20 24 27 26 27 29 31 29 27 28 30 32 34 35 33 33 33 32 31 29 23 19 17 16 16 14 15 18 17 17 20 23 21 17 21 28 26 21 20 14 9 9 6 5 9 13 21 29 29 29 29 24 23 22 19 19 18 17 18 16 15 18 18 15
24 28 29 28 32 33 33 33 30 29 31 36 40 40 42 39 27 22 28 30 27 22 19 20 21 24 27 27 26 27 29 27 25 27 29 29 29 33 35 34 33 33 31 29 27 24 18 14 16 19 18 18 18 17 19 23 24 21 23 27 24 19 18 16 8 3 2 4 8 14 23 28 24 21 18 13 12 12 7 6 9 13 16 15 14 14 11 9
24 25 27 26 27 28 31 32 31 28 28 35 43 44 41 38 31 26 27 29 28 25 21 21 20 22 26 29 27 27 28 27 26 26 29 28 25 28 34 34 33 33 32 30 28 25 21 16 15 18 20 19 19 20 21 24 27 27 24 21 19 15 13 16 10 2 2 2 6 14 20 27 33 30 22 14 12 13 13 16 18 16 15 15 15 12 9 8
26 26 26 27 25 23 25 29 30 30 28 30 38 44 43 40 32 27 28 28 27 25 24 22 21 22 24 27 28 29 28 28 28 28 27 27 25 25 28 31 31 32 32 31 30 26 22 18 15 18 20 19 20 24 28 29 28 28 26 21 21 17 12 17 18 9 4 3 4 10 11 23 39 38 30 26 22 21 20 17 13 13 16 16 15 16 14 9
27 27 27 28 27 25 23 24 27 29 31 31 33 39 43 41 33 27 27 28 26 26 24 24 24 24 24 25 26 27 28 28 28 29 27 26 25 23 22 23 26 28 29 30 31 29 24 20 17 17 20 22 25 28 29 29 27 28 29 26 26 24 16 15 19 19 13 5 3 4 7 26 41 31 20 14 9 9 7 8 14 17 18 17 18 18 14 10
28 29 28 27 28 27 25 26 27 28 30 31 32 35 38 39 37 31 27 27 27 26 25 25 26 27 27 28 28 27 27 28 28 28 27 26 25 22 19 20 20 20 23 26 29 30 27 25 20 17 20 25 28 26 24 25 25 27 30 29 30 30 24 14 10 19 23 14 9 4 7 34 47 32 21 14 8 8 4 11 18 18 17 17 18 16 13 18
30 30 29 27 28 28 28 29 29 27 29 30 31 32 32 34 38 36 31 28 26 26 27 26 25 25 27 29 30 29 27 27 29 29 27 26 26 22 19 19 19 18 20 23 25 28 28 27 25 23 25 26 24 22 23 24 26 28 30 32 32 32 34 25 12 14 21 21 23 13 10 39 51 36 28 23 14 11 7 11 15 16 15 17 17 20 25 33
30 31 30 28 28 29 29 31 31 31 33 33 31 30 29 28 31 35 36 34 30 27 27 28 26 24 26 27 28 29 28 26 27 29 28 25 25 24 22 21 19 18 20 20 22 25 26 26 26 24 24 25 23 23 25 26 27 31 33 34 34 32 35 33 24 21 17 19 25 13 9 39 52 38 31 25 17 17 15 15 18 20 24 27 30 35 38 38
27 30 31 30 29 30 31 33 34 35 36 34 32 31 30 28 27 29 34 38 38 36 32 30 29 26 25 26 25 25 28 26 25 28 29 27 25 26 25 24 22 21 23 22 22 25 25 25 25 17 9 11 15 17 22 27 29 32 33 33 35 34 33 31 30 26 18 20 26 14 12 42 53 40 37 33 27 28 28 30 34 36 37 38 38 37 34 31
24 27 30 31 31 31 34 35 35 36 36 35 35 34 32 31 30 30 30 30 34 38 38 36 34 31 28 27 26 25 26 26 25 27 29 29 27 27 27 26 25 25 26 24 23 25 24 25 27 21 11 9 10 10 18 27 30 32 34 33 33 34 32 31 30 26 22 28 34 25 25 47 55 47 46 44 41 40 39 41 43 42 41 40 36 31 28 28
25 26 28 31 32 33 35 36 36 36 36 36 36 36 34 33 33 33 32 29 27 30 33 36 37 37 35 33 32 31 31 31 29 28 29 30 29 28 28 26 25 25 26 25 24 25 26 25 27 28 26 25 20 14 16 23 25 29 33 33 33 33 32 32 30 30 33 34 37 38 41 49 56 55 53 50 48 46 46 46 44 43 43 42 37 34 33 34
27 27 29 29 30 32 35 36 36 37 37 36 36 37 36 35 34 33 33 33 31 29 29 30 32 35 38 38 35 35 36 36 35 34 34 33 32 31 29 28 27 25 25 23 22 23 25 26 27 29 31 31 24 14 13 17 18 22 27 29 31 31 30 32 33 37 38 30 31 43 46 45 54 58 54 51 49 46 47 47 46 45 45 43 42 42 42 42
30 30 30 29 28 29 33 36 37 37 37 37 37 36 36 36 35 35 34 33 33 32 29 29 31 33 36 36 34 35 36 35 35 37 37 35 34 33 33 32 29 27 26 23 22 23 23 24 27 28 28 30 26 18 17 16 15 17 19 20 22 23 26 32 36 41 41 34 36 46 44 42 51 56 54 52 50 47 48 49 48 47 45 45 45 45 45 44
33 32 31 31 31 30 30 32 35 37 38 38 38 37 36 37 38 38 37 34 32 32 32 32 34 35 33 32 32 33 35 35 37 39 39 37 35 34 35 34 32 31 31 28 27 27 26 26 28 28 29 31 30 27 26 24 23 22 21 19 18 18 22 28 34 38 39 38 43 47 45 47 52 52 53 53 50 48 48 47 47 48 47 46 43 39 36 33
34 33 31 31 34 34 32 30 32 36 38 39 39 39 38 39 39 38 38 37 35 34 34 35 36 35 33 31 31 32 33 34 35 36 36 36 35 35 36 36 35 33 33 34 34 31 31 31 31 31 32 35 37 37 36 36 36 37 35 33 31 29 29 31 32 33 33 35 41 42 44 50 52 48 49 49 48 48 46 45 46 45 42 39 36 32 28 24
34 33 31 31 34 36 35 34 33 34 38 40 41 40 39 39 39 36 35 37 37 36 35 34 34 33 31 30 30 31 31 30 30 29 29 29 29 30 32 34 34 31 30 31 31 31 31 31 32 30 28 34 42 40 39 40 38 37 40 43 44 44 43 41 39 37 35 36 38 38 41 47 49 46 45 47 49 49 45 42 40 36 34 35 35 34 32 30
33 33 34 33 34 35 36 36 36 35 38 40 40 40 39 39 38 34 31 33 35 36 35 33 31 30 30 31 31 30 29 29 28 27 27 26 25 26 28 30 30 29 29 28 28 30 31 31 33 30 25 32 41 36 32 29 21 25 40 48 47 46 46 47 47 47 46 46 44 43 46 50 50 48 48 49 47 43 38 36 35 35 38 39 38 37 35 34
Wind_Direction
195 194 193 191 186 178 172 171 172 170 170 171 174 177 178 178 177 177 178 179 181 183 185 185 185 186 186 188 188 188 187 188 189 188 186 184 183 183 183 183 182 183 184 183 182 182 182 182 187 191 195 196 196 201 205 202 204 204 205 215 212 212 242 221 217 234 247 241 245 279 278 266 245 231 234 238 241 241 244 237 236 234 227 222 209 215 210 202
196 195 194 193 191 185 177 174 174 173 173 175 177 180 180 180 180 181 182 182 183 184 185 186 187 188 189 189 188 188 187 188 187 185 184 182 183 183 182 183 181 182 184 184 186 186 184 181 182 189 193 193 195 197 199 200 200 200 206 211 209 224 219 198 223 251 259 270 284 296 280 252 243 241 239 243 243 239 242 238 238 239 230 231 229 226 226 222
198 197 196 195 195 191 183 178 177 177 177 179 181 182 182 182 183 185 185 184 184 184 186 188 189 190 190 189 189 188 187 187 185 182 182 183 183 183 183 183 181 181 183 186 188 190 193 190 181 183 191 190 193 196 198 200 198 198 203 206 210 210 186 186 221 249 260 273 278 280 276 269 258 257 250 244 243 239 243 241 237 241 237 235 238 235 234 236
199 198 198 197 197 197 190 183 181 181 182 183 183 184 184 184 185 188 188 186 185 185 186 189 190 189 189 189 188 187 186 185 182 182 183 184 185 184 184 184 182 182 185 187 188 191 195 201 192 184 190 191 191 195 197 200 198 200 200 199 207 204 192 201 221 244 262 272 272 262 264 276 278 257 251 246 246 241 239 241 235 232 234 235 237 237 235 237
200 198 198 198 199 199 195 188 185 184 185 185 186 186 186 187 187 188 190 189 187 186 187 189 189 188 187 186 185 184 184 183 182 184 184 185 187 185 185 186 184 184 187 188 191 194 190 200 207 193 192 196 193 194 197 200 200 202 202 199 206 206 208 223 233 248 264 271 270 252 258 279 285 247 240 247 255 251 239 238 233 226 229 235 238 238 238 239
202 200 198 199 200 201 199 193 189 188 188 188 188 188 188 190 190 190 191 191 189 188 188 189 188 187 187 184 182 182 180 180 183 185 186 186 187 187 187 187 188 188 188 190 192 196 190 193 207 200 199 202 198 199 199 201 203 206 208 205 210 212 215 230 239 247 256 265 268 262 262 271 268 247 243 249 255 259 259 255 249 238 235 239 242 242 240 239
203 201 200 199 201 202 201 197 194 192 191 191 190 190 190 191 192 192 192 193 192 190 189 189 188 187 186 184 182 181 179 178 182 186 188 188 189 190 190 189 192 192 191 194 193 193 193 191 196 195 199 204 203 207 204 204 208 212 215 214 217 221 224 234 242 251 256 262 266 264 261 256 255 250 249 252 247 254 264 272 275 274 264 252 245 240 236 236
204 203 202 200 201 203 204 201 198 195 193 193 193 193 193 193 194 194 194 194 193 192 191 190 189 187 186 185 183 182 180 178 182 189 190 190 192 192 193 194 194 196 196 196 196 195 193 189 189 188 191 200 205 212 210 208 212 218 222 222 225 229 233 240 245 252 258 261 264 264 261 256 254 251 245 231 230 244 252 261 270 275 275 271 260 248 239 239
204 204 204 201 201 203 205 204 201 199 197 196 195 196 195 195 195 195 196 196 195 194 193 192 190 189 187 186 186 183 183 182 180 188 193 193 195 196 197 199 199 201 201 200 201 198 196 192 190 189 189 197 206 212 214 214 218 222 226 227 230 233 237 244 248 252 257 259 261 262 260 260 259 257 249 222 222 237 246 254 260 266 271 274 269 262 252 247
204 205 205 203 201 201 204 206 205 203 201 199 198 198 198 197 197 196 197 198 198 196 194 193 191 190 190 190 188 185 187 187 182 185 194 197 198 199 201 203 204 204 204 205 205 202 202 200 198 196 192 197 207 212 215 218 222 225 230 234 238 242 245 248 251 252 255 256 258 259 262 264 264 268 269 235 230 241 249 253 258 264 269 267 264 261 258 254
203 204 206 204 202 201 203 206 207 206 205 203 200 200 200 200 199 198 198 199 199 198 197 195 193 192 193 194 189 187 191 192 190 186 190 198 200 202 204 207 208 207 207 208 209 209 208 208 209 205 197 199 208 215 221 225 229 232 237 243 247 250 251 251 253 253 254 255 258 259 261 262 264 275 255 227 236 246 250 249 252 259 264 262 258 257 259 261
202 203 205 205 204 202 202 205 208 208 207 206 203 202 201 201 201 200 200 200 200 200 199 197 196 194 196 196 190 191 195 195 197 194 189 196 201 205 208 210 211 211 210 209 211 214 213 212 213 210 206 206 209 215 224 228 232 238 242 246 251 254 254 253 253 253 253 255 258 259 261 261 262 247 202 224 235 243 248 249 249 253 258 262 262 260 261 263
200 202 204 204 205 203 202 204 207 209 209 208 206 205 203 202 202 201 201 202 202 201 201 200 199 198 198 197 193 195 198 197 200 200 197 198 202 208 211 213 215 213 213 214 214 216 218 215 211 212 215 214 212 216 222 226 229 235 242 247 251 256 258 254 251 251 252 253 255 258 258 261 263 229 216 234 246 246 248 250 250 250 253 257 261 263 261 260
198 200 203 203 204 203 203 203 205 209 210 210 209 207 206 204 202 203 203 202 203 203 202 202 202 201 200 199 197 200 201 200 202 202 203 204 204 209 213 215 216 214 215 217 216 217 221 218 213 212 215 215 215 217 218 222 225 227 236 245 249 252 254 252 248 249 250 248 249 256 257 256 248 234 231 236 249 254 254 250 250 249 250 254 260 265 266 265
198 199 201 202 202 203 204 204 205 208 210 211 211 209 208 206 205 204 203 203 203 204 204 204 204 203 203 203 202 203 204 203 203 203 206 207 207 209 213 215 216 216 216 216 218 218 219 218 215 211 211 213 212 210 210 213 218 221 226 239 248 250 255 258 251 250 253 250 247 253 260 253 232 238 246 249 251 257 259 258 258 257 258 260 263 267 270 271
199 199 201 202 202 202 203 204 206 208 210 211 210 210 209 207 206 205 204 204 203 205 205 205 206 206 206 206 206 206 206 205 204 204 207 208 210 212 213 215 215 216 216 215 217 218 217 215 212 210 210 211 208 206 204 202 212 219 219 226 239 246 258 265 259 261 265 262 252 251 257 255 242 244 254 261 263 266 266 265 266 267 269 268 268 269 270 273
199 199 201 202 202 203 204 206 208 209 210 210 209 209 209 208 206 205 204 204 204 206 206 206 207 207 208 208 209 209 208 207 207 207 209 209 211 215 215 215 215 214 214 214 215 215 214 212 210 209 209 206 202 202 196 193 210 221 221 219 224 233 254 265 265 269 272 271 266 258 258 258 258 262 265 269 273 273 271 268 268 268 269 271 274 279 282 283
200 200 200 201 202 202 204 206 208 209 210 209 207 206 206 207 205 204 203 203 204 205 206 208 208 206 209 211 210 210 208 209 210 210 211 210 211 215 216 217 216 214 212 211 211 211 210 211 210 205 203 199 196 201 195 181 198 219 230 228 227 231 244 261 266 270 273 276 275 269 267 266 264 263 265 269 273 273 272 269 266 264 266 271 278 285 291 289
201 200 200 201 201 201 202 204 206 207 207 207 206 203 203 204 204 203 203 205 204 202 203 208 208 205 209 213 211 210 209 209 211 211 211 212 213 214 214 215 214 213 210 209 208 209 209 210 210 206 204 201 200 204 196 172 159 193 223 230 231 232 237 252 263 268 273 276 276 274 274 273 267 259 255 259 266 270 273 272 268 266 267 271 276 283 287 289
204 201 201 201 201 201 201 202 203 204 204 205 204 202 201 201 201 201 201 204 205 204 205 208 209 207 210 214 212 210 211 211 211 212 212 213 213 214 215 214 213 213 211 209 208 210 211 211 213 213 212 209 203 200 193 194 216 217 203 199 207 223 230 240 253 262 268 271 274 277 277 274 271 267 261 258 260 264 269 273 273 272 271 270 271 274 279 287
205 204 203 202 201 201 201 201 201 201 202 202 203 203 203 202 203 205 202 201 204 207 209 210 210 208 208 210 211 210 211 212 211 210 212 214 214 214 214 215 215 215 212 209 208 211 213 213 215 215 215 212 203 197 197 202 215 222 219 202 195 210 225 234 246 259 269 271 273 277 278 274 273 274 270 264 262 263 268 273 274 275 275 276 275 273 275 281
205 206 205 205 204 202 202 202 201 201 200 200 201 203 205 204 205 208 206 204 206 208 210 212 213 210 207 207 208 208 211 212 211 211 211 213 214 214 214 215 216 216 216 214 209 210 214 215 213 208 209 209 199 198 204 207 214 222 226 225 218 222 236 242 250 264 272 275 278 282 281 276 273 276 274 271 268 267 269 267 267 271 274 279 284 285 284 283
205 207 207 207 207 206 205 205 204 203 201 201 201 202 204 205 205 205 204 206 209 210 211 213 214 212 208 208 209 208 211 211 212 213 213 213 214 213 214 214 213 214 216 216 214 214 216 216 210 204 205 206 200 203 210 214 220 226 231 237 240 243 250 254 258 266 272 280 285 288 286 278 274 275 274 274 271 267 265 261 260 264 269 275 280 283 286 287
207 208 210 210 209 211 209 207 207 205 204 203 202 201 201 202 204 204 202 203 208 210 212 213 215 213 210 210 211 211 211 210 211 214 215 215 214 214 216 214 212 213 213 215 218 221 222 217 210 208 208 206 203 206 213 216 222 230 237 242 248 253 255 257 261 267 275 283 286 290 291 283 279 279 278 276 268 265 265 262 262 263 266 272 275 280 286 287
208 209 211 212 212 213 212 211 208 206 206 203 201 201 199 198 200 202 201 203 209 210 210 212 214 213 211 210 212 213 213 212 210 211 214 215 215 215 214 212 211 211 210 211 215 222 223 217 212 212 213 214 212 212 215 219 226 234 242 246 250 253 251 252 261 272 281 285 285 293 300 286 281 279 279 279 271 268 267 261 260 261 264 267 270 276 279 281
205 209 210 211 213 213 213 211 209 206 205 202 201 200 198 196 195 196 194 200 215 213 209 211 212 212 210 208 211 213 216 216 211 210 212 212 214 214 212 211 211 208 205 207 215 223 222 214 210 208 212 220 222 221 222 224 231 237 245 248 246 246 247 253 262 270 278 280 282 288 294 287 284 277 273 276 273 271 269 263 263 265 267 269 272 279 280 279
197 204 207 209 211 212 212 211 208 207 203 200 199 198 197 194 190 190 187 193 231 218 211 211 211 212 210 207 210 212 214 216 210 209 212 210 212 213 211 212 212 207 202 202 211 220 218 209 207 209 213 222 224 224 224 224 229 236 241 243 240 243 246 252 263 265 269 274 278 279 275 282 283 277 275 279 278 273 267 264 268 271 275 279 281 284 286 285
192 196 201 204 206 208 210 209 208 206 202 198 197 196 195 192 187 189 185 150 225 210 211 212 211 213 210 207 211 213 216 218 211 210 212 209 211 212 212 214 214 209 206 208 213 220 220 213 212 215 219 225 228 225 223 222 226 233 237 238 236 242 249 256 267 269 275 280 275 272 269 264 271 274 278 283 282 277 271 271 275 277 280 285 287 285 284 285
189 193 196 198 202 205 206 206 206 204 200 196 195 194 192 188 185 183 180 181 196 198 207 209 209 211 209 206 210 213 217 218 213 211 212 209 209 211 211 213 214 209 207 213 218 221 224 219 217 222 226 232 235 233 234 232 233 237 237 238 236 240 252 260 268 274 282 278 266 266 267 256 269 275 274 278 282 281 282 286 288 285 286 292 296 285 264 255
186 191 194 194 197 201 203 202 201 199 197 194 192 190 187 185 181 171 162 203 198 199 203 203 206 208 207 206 207 211 214 216 213 210 211 208 207 208 209 212 213 212 211 212 215 220 223 221 220 224 230 235 238 239 240 237 237 239 234 230 231 236 252 263 269 275 284 273 263 267 267 258 268 277 274 277 283 284 287 292 294 293 294 303 306 278 251 265
187 189 194 196 193 196 199 200 197 194 192 191 189 184 181 180 178 169 177 200 196 201 202 199 202 205 207 207 207 209 211 213 212 209 210 207 204 204 203 205 207 208 215 216 216 221 224 224 225 228 232 235 237 236 235 234 232 232 229 224 225 236 260 267 263 258 255 264 265 266 265 253 242 257 271 276 279 282 288 291 293 295 298 302 298 272 265 283
192 189 194 196 193 193 195 197 196 191 188 188 185 181 178 175 180 191 199 197 197 207 203 200 201 203 206 208 211 213 211 212 211 211 213 209 207 208 205 207 207 202 209 216 217 223 227 229 230 232 234 234 233 227 218 219 222 223 222 209 203 221 298 262 247 226 235 249 256 255 253 248 250 259 268 271 272 277 280 281 281 281 283 288 285 277 279 286
198 196 196 194 192 192 191 193 195 191 187 186 184 181 178 174 195 203 198 193 194 196 201 205 206 206 205 204 209 213 213 214 214 213 216 214 214 215 212 216 218 214 216 218 216 220 225 230 229 229 231 232 231 224 213 214 219 225 226 214 198 174 109 246 250 276 259 253 243 237 238 252 264 272 276 270 265 265 263 264 265 264 269 279 284 285 284 281
204 203 202 197 194 193 190 188 192 193 189 186 184 181 180 187 208 205 197 195 191 168 193 203 201 202 205 206 209 210 209 212 215 215 215 214 216 216 214 216 219 220 223 223 221 222 223 229 230 230 232 235 237 236 234 236 238 240 239 234 226 215 201 208 210 208 254 264 217 211 222 251 263 270 264 171 208 239 253 261 265 270 280 290 296 296 287 281
213 208 207 202 198 195 192 188 187 192 192 188 185 182 187 201 209 205 199 197 194 178 187 197 196 194 197 204 210 211 210 209 210 213 215 217 218 219 218 217 218 219 219 220 223 223 227 237 240 234 234 239 242 242 243 240 240 241 235 232 232 229 227 229 232 233 252 329 236 215 231 249 256 258 253 241 237 246 262 274 275 276 281 284 285 288 286 283
222 216 213 210 205 200 198 194 189 189 191 189 188 188 197 205 207 205 203 201 202 196 182 182 191 191 189 195 204 208 211 211 208 208 212 219 223 224 224 223 223 222 220 220 219 217 222 233 236 230 229 234 233 234 235 231 231 229 222 225 228 230 231 232 248 257 257 286 262 239 249 259 266 271 269 266 264 262 266 269 265 267 280 286 281 278 276 276
223 222 219 219 216 211 208 205 199 194 190 187 190 196 203 207 206 204 205 205 208 207 189 179 188 192 187 190 197 202 207 209 207 207 210 215 222 225 225 226 227 227 227 227 224 224 228 229 230 229 228 227 223 222 223 226 228 222 221 227 227 227 227 223 237 281 239 261 266 250 257 267 271 273 277 271 241 218 204 234 260 278 287 281 264 256 256 268
217 220 220 222 225 224 219 215 211 208 201 191 192 199 204 205 206 204 204 206 207 209 203 193 193 196 194 194 197 200 204 204 203 206 210 213 220 226 225 226 227 227 229 229 226 227 230 230 228 226 224 221 218 217 216 219 222 222 226 226 219 218 214 207 212 246 216 230 278 263 261 269 266 259 263 262 234 229 253 273 280 276 262 244 232 232 245 267
215 217 218 217 221 224 222 223 220 217 219 208 199 202 206 203 200 200 201 202 201 204 206 202 201 201 200 203 202 200 203 206 205 204 207 212 220 227 228 227 228 228 227 227 226 225 223 227 227 222 220 214 211 213 214 214 214 218 225 224 222 223 209 205 210 214 207 177 259 272 269 267 265 265 272 276 272 276 281 278 262 227 213 217 223 234 244 264
216 217 218 214 215 217 214 219 223 221 225 223 211 209 210 205 199 196 200 201 197 196 199 201 206 206 203 206 208 206 207 211 211 210 210 213 217 223 226 226 228 229 228 226 227 225 221 225 228 222 215 210 211 216 220 221 219 221 223 220 222 222 210 213 220 220 222 204 207 258 271 265 266 272 282 281 280 293 280 221 210 205 210 221 224 229 233 263
217 218 219 214 214 215 210 208 213 216 222 226 223 220 218 212 206 199 198 201 196 192 193 195 201 207 206 205 208 211 211 212 215 215 216 218 219 220 223 224 224 225 224 222 223 224 222 225 229 224 217 219 223 227 230 234 236 238 237 233 233 229 217 211 216 219 223 225 226 213 276 270 268 271 271 261 257 280 245 189 201 201 205 212 208 212 235 274
220 219 218 215 213 214 211 209 209 212 218 223 225 228 227 223 218 209 202 200 194 190 192 192 192 199 205 205 206 209 210 212 216 218 220 223 224 224 225 227 226 221 220 220 221 223 223 226 232 234 235 239 240 236 232 234 237 240 242 242 242 236 225 218 214 221 218 224 239 239 264 268 267 267 267 262 253 247 210 186 201 206 218 231 236 251 273 288
221 221 218 215 214 213 212 211 210 213 219 223 225 227 228 229 226 218 211 208 203 195 191 191 191 192 197 201 204 206 207 210 214 217 220 223 225 227 227 228 226 217 216 218 218 218 218 222 228 233 240 244 242 237 233 232 232 233 235 237 235 233 231 229 231 237 225 220 233 228 247 262 263 265 263 258 245 237 236 240 248 256 265 272 278 283 290 295
221 222 220 216 214 212 213 216 215 215 218 221 222 222 224 226 227 224 219 217 215 211 204 198 195 191 192 196 200 204 203 204 209 214 217 219 220 223 225 226 223 215 213 214 211 211 214 217 219 218 226 240 238 231 228 226 227 231 234 236 236 236 236 234 234 238 238 234 233 219 236 256 260 264 263 263 264 263 266 272 276 281 284 285 289 292 295 297
221 221 220 218 215 213 214 218 220 219 219 220 221 222 223 224 226 226 225 223 222 222 222 218 210 204 204 203 203 206 204 202 206 209 213 216 217 219 221 219 217 215 214 216 214 214 217 216 216 213 202 213 226 220 224 227 227 230 233 234 238 239 235 234 233 229 233 241 237 228 239 255 261 264 265 269 273 274 277 280 282 285 287 290 293 294 295 296
221 219 219 218 216 217 217 218 220 221 220 221 223 223 223 224 227 228 228 227 226 225 228 230 226 223 225 224 219 217 216 215 215 215 216 217 217 218 219 217 214 213 213 216 213 213 216 216 218 223 225 230 234 227 228 230 225 229 235 235 238 240 238 238 233 226 233 240 240 240 247 258 264 266 266 269 273 275 279 283 285 285 286 289 292 294 296 297
222 222 221 218 216 218 220 219 219 220 220 221 223 224 224 225 227 228 230 231 231 229 228 230 232 230 232 233 230 225 224 224 224 223 223 223 221 220 220 217 213 209 207 209 206 205 211 213 214 223 229 233 235 223 212 214 208 217 231 235 235 237 237 235 232 234 239 237 241 249 250 253 262 267 268 271 274 278 282 284 286 286 286 289 293 296 299 300
222 223 223 220 219 221 223 222 222 222 220 221 224 226 226 226 226 227 229 231 232 232 230 229 231 231 232 235 234 231 229 226 225 226 226 224 222 221 222 221 216 210 208 211 213 211 214 216 215 218 226 229 228 218 211 213 206 206 217 226 231 233 233 233 236 242 242 236 243 254 253 253 261 267 268 271 275 279 280 281 284 287 290 294 298 300 300 301
222 223 223 220 220 223 225 226 226 224 221 220 223 225 226 228 229 229 229 229 229 229 229 231 234 234 232 233 234 234 232 228 228 230 230 228 226 225 228 229 227 224 224 230 235 232 234 237 232 230 235 236 233 230 232 239 243 240 236 233 235 235 231 232 236 239 241 243 249 255 257 258 260 262 265 271 275 276 278 282 286 290 295 298 302 304 304 304
225 223 221 220 221 223 223 223 223 224 223 221 221 223 225 227 230 230 229 229 228 228 229 231 236 237 236 234 234 235 237 237 238 239 238 236 235 234 235 237 239 238 237 242 245 244 243 245 245 244 244 245 245 244 246 250 254 256 255 251 249 245 238 235 236 237 242 246 246 250 256 259 259 260 265 273 277 279 283 287 289 291 295 300 305 309 309 306
228 225 221 221 223 223 222 222 220 221 222 221 223 226 226 228 230 230 229 231 232 232 232 234 237 239 237 233 231 234 238 241 244 245 244 242 241 241 239 240 242 242 240 241 242 240 238 238 241 241 240 245 250 249 249 252 254 257 257 253 251 248 245 243 241 241 244 245 246 250 255 259 263 267 270 276 281 284 287 290 290 291 295 300 306 306 302 299
231 229 225 222 222 222 222 223 221 220 222 223 226 229 229 230 231 228 226 231 235 235 236 239 241 240 236 231 231 234 234 234 236 238 238 237 236 238 238 239 241 241 241 240 237 236 236 234 236 233 229 241 249 249 248 251 253 254 253 252 250 250 251 252 248 245 246 247 250 253 256 262 269 274 276 279 282 285 289 291 291 293 296 301 304 301 298 297
Height
3090 3092 3094 3096 3097 3098 3099 3101 3104 3105 3107 3110 3112 3114 3116 3118 3119 3121 3123 3125 3127 3129 3131 3133 3135 3136 3137 3139 3141 3142 3143 3145 3146 3148 3150 3151 3153 3154 3156 3157 3158 3160 3161 3162 3164 3165 3166 3168 3170 3171 3173 3174 3175 3177 3178 3179 3180 3182 3183 3184 3185 3185 3185 3185 3185 3186 3186 3186 3187 3187 3188 3188 3188 3188 3189 3189 3190 3190 3191 3191 3192 3193 3194 3194 3195 3196 3196 3197
3089 3091 3093 3095 3097 3098 3099 3101 3103 3105 3107 3109 3112 3114 3116 3117 3119 3121 3123 3124 3126 3128 3130 3132 3134 3136 3137 3139 3140 3141 3143 3144 3146 3148 3149 3151 3152 3154 3155 3156 3158 3159 3161 3162 3163 3165 3166 3167 3169 3171 3172 3173 3175 3176 3177 3178 3179 3181 3182 3184 3184 3184 3185 3185 3185 3185 3186 3186 3186 3186 3187 3187 3188 3188 3188 3189 3189 3189 3190 3190 3191 3192 3193 3194 3195 3195 3196 3196
3088 3090 3092 3094 3097 3098 3099 3101 3103 3105 3107 3109 3111 3113 3115 3117 3119 3121 3122 3124 3126 3128 3130 3132 3133 3135 3136 3138 3139 3141 3142 3144 3146 3147 3149 3150 3152 3153 3155 3156 3157 3159 3160 3162 3163 3165 3166 3167 3168 3170 3171 3172 3174 3175 3177 3178 3179 3180 3181 3183 3183 3184 3185 3185 3185 3185 3185 3186 3186 3186 3186 3187 3187 3187 3188 3188 3188 3189 3189 3189 3190 3191 3192 3193 3194 3195 3195 3196
3087 3089 3091 3093 3096 3098 3099 3100 3102 3104 3106 3109 3111 3113 3115 3116 3118 3120 3122 3123 3125 3127 3129 3131 3133 3134 3136 3137 3138 3140 3142 3144 3145 3147 3148 3150 3151 3153 3154 3156 3157 3159 3160 3162 3163 3164 3165 3167 3168 3168 3170 3171 3173 3174 3176 3177 3178 3179 3181 3182 3182 3183 3184 3185 3185 3185 3184 3185 3186 3186 3185 3186 3187 3187 3187 3187 3187 3188 3188 3188 3189 3190 3191 3192 3193 3194 3194 3195
3086 3088 3090 3093 3095 3097 3098 3100 3102 3104 3106 3108 3110 3112 3114 3116 3117 3119 3121 3122 3124 3126 3128 3130 3132 3133 3134 3136 3137 3139 3141 3143 3145 3146 3148 3149 3151 3152 3154 3155 3157 3158 3160 3162 3163 3164 3165 3166 3167 3168 3169 3170 3172 3173 3175 3176 3178 3179 3180 3181 3181 3182 3184 3184 3185 3185 3184 3184 3185 3186 3185 3185 3186 3186 3186 3186 3187 3187 3187 3188 3189 3190 3190 3191 3192 3193 3194 3194
3085 3087 3089 3091 3093 3096 3097 3099 3101 3102 3105 3107 3109 3111 3113 3115 3117 3118 3120 3122 3123 3125 3127 3129 3131 3132 3134 3135 3137 3138 3141 3143 3144 3146 3147 3149 3150 3152 3153 3155 3156 3158 3160 3161 3162 3164 3165 3166 3167 3168 3169 3170 3171 3173 3174 3176 3177 3178 3179 3180 3180 3181 3183 3183 3184 3184 3184 3184 3184 3185 3185 3185 3185 3186 3186 3186 3186 3186 3186 3187 3188 3189 3190 3190 3191 3192 3193 3193
3083 3086 3088 3090 3092 3094 3096 3097 3099 3101 3103 3106 3108 3110 3112 3114 3116 3118 3119 3121 3123 3124 3126 3128 3129 3131 3133 3135 3136 3138 3140 3142 3144 3145 3147 3148 3149 3151 3153 3154 3156 3158 3159 3161 3162 3163 3164 3165 3167 3168 3169 3170 3171 3171 3173 3175 3176 3177 3178 3179 3180 3181 3182 3182 3183 3183 3183 3183 3183 3184 3184 3184 3185 3185 3185 3186 3186 3185 3185 3186 3187 3188 3188 3189 3190 3191 3192 3192
3082 3084 3086 3088 3090 3093 3095 3096 3098 3101 3103 3105 3107 3109 3111 3113 3115 3117 3118 3120 3122 3123 3125 3127 3128 3130 3132 3134 3136 3138 3140 3142 3143 3145 3146 3148 3149 3150 3152 3154 3155 3157 3158 3160 3161 3162 3163 3165 3166 3167 3168 3169 3169 3170 3172 3174 3175 3176 3177 3178 3179 3180 3181 3181 3182 3182 3182 3183 3183 3183 3183 3183 3184 3184 3185 3185 3185 3185 3185 3185 3186 3186 3187 3188 3189 3190 3190 3191
3080 3082 3085 3087 3089 3091 3094 3096 3098 3100 3102 3103 3105 3108 3110 3112 3114 3116 3118 3119 3121 3123 3124 3126 3128 3130 3132 3133 3135 3137 3140 3141 3143 3144 3146 3147 3149 3150 3152 3153 3155 3156 3158 3159 3160 3161 3163 3164 3165 3166 3167 3168 3169 3170 3171 3173 3174 3175 3176 3177 3178 3179 3179 3180 3181 3181 3182 3182 3182 3182 3182 3182 3183 3183 3184 3184 3184 3184 3184 3184 3185 3186 3186 3187 3188 3189 3189 3190
3078 3081 3083 3085 3088 3090 3093 3095 3097 3099 3101 3102 3104 3107 3109 3111 3113 3115 3117 3119 3120 3122 3123 3125 3127 3129 3131 3132 3134 3137 3139 3141 3142 3143 3145 3147 3148 3150 3151 3153 3154 3155 3157 3158 3159 3161 3162 3163 3164 3165 3166 3167 3168 3169 3171 3172 3173 3174 3175 3176 3177 3178 3178 3179 3180 3180 3180 3181 3181 3181 3181 3181 3181 3182 3183 3184 3184 3184 3184 3184 3184 3185 3185 3186 3187 3188 3188 3189
3076 3079 3081 3084 3086 3089 3091 3094 3096 3098 3100 3101 3103 3106 3108 3110 3112 3114 3116 3118 3119 3121 3123 3124 3126 3128 3130 3131 3134 3137 3138 3140 3141 3143 3144 3146 3148 3149 3151 3152 3153 3155 3156 3158 3159 3160 3162 3163 3164 3165 3166 3167 3168 3169 3171 3172 3172 3173 3174 3175 3176 3177 3177 3177 3178 3179 3179 3180 3180 3180 3180 3180 3180 3182 3182 3182 3183 3183 3183 3184 3184 3184 3185 3185 3186 3187 3187 3188
3074 3077 3080 3082 3085 3087 3090 3092 3094 3097 3098 3100 3102 3105 3107 3109 3111 3113 3115 3117 3118 3120 3122 3124 3125 3127 3129 3131 3134 3136 3137 3139 3141 3142 3143 3145 3147 3148 3150 3151 3153 3154 3156 3157 3159 3160 3161 3162 3164 3165 3165 3166 3167 3169 3170 3171 3171 3172 3173 3174 3174 3175 3176 3176 3177 3177 3178 3179 3179 3179 3179 3178 3179 3181 3181 3181 3181 3182 3182 3183 3183 3184 3184 3184 3185 3185 3186 3187
3072 3075 3078 3081 3083 3085 3088 3090 3093 3095 3097 3099 3101 3104 3106 3108 3110 3112 3114 3116 3117 3119 3121 3123 3124 3126 3128 3131 3133 3134 3136 3138 3140 3141 3143 3144 3146 3148 3149 3151 3152 3154 3155 3156 3158 3159 3160 3161 3163 3164 3164 3166 3167 3168 3169 3170 3171 3172 3172 3173 3173 3174 3174 3175 3176 3176 3177 3178 3178 3178 3178 3177 3179 3180 3179 3179 3180 3180 3181 3182 3183 3183 3183 3183 3183 3184 3185 3185
3071 3074 3076 3079 3081 3084 3086 3089 3092 3094 3096 3098 3100 3102 3104 3107 3109 3111 3113 3115 3116 3118 3120 3122 3123 3125 3127 3129 3132 3133 3135 3137 3139 3140 3142 3144 3145 3147 3149 3150 3151 3153 3154 3155 3157 3158 3159 3161 3162 3163 3164 3165 3167 3168 3169 3169 3170 3171 3171 3171 3172 3173 3173 3174 3174 3175 3175 3176 3177 3177 3176 3177 3178 3178 3178 3178 3178 3179 3180 3181 3181 3181 3182 3182 3182 3182 3183 3184
3070 3072 3075 3077 3080 3082 3085 3087 3090 3092 3094 3097 3099 3101 3103 3105 3107 3110 3112 3113 3115 3117 3119 3121 3123 3124 3126 3128 3130 3132 3134 3136 3138 3139 3141 3143 3145 3147 3148 3149 3151 3152 3153 3154 3156 3157 3158 3160 3161 3162 3163 3164 3166 3167 3168 3169 3169 3170 3170 3171 3171 3171 3172 3173 3173 3173 3174 3175 3176 3176 3175 3176 3177 3176 3176 3177 3177 3178 3178 3179 3179 3180 3180 3180 3181 3181 3182 3182
3068 3071 3073 3075 3078 3080 3083 3085 3088 3090 3092 3095 3097 3099 3101 3104 3106 3108 3110 3112 3114 3116 3118 3120 3121 3122 3125 3127 3128 3130 3132 3135 3137 3139 3140 3142 3144 3146 3147 3148 3150 3151 3152 3153 3155 3156 3158 3159 3160 3161 3162 3163 3165 3166 3167 3168 3168 3169 3169 3170 3170 3171 3171 3171 3172 3172 3173 3174 3175 3175 3174 3174 3175 3176 3176 3176 3176 3177 3177 3178 3178 3178 3178 3179 3179 3180 3180 3181
3067 3069 3072 3074 3076 3079 3081 3084 3086 3088 3091 3093 3095 3098 3100 3102 3104 3106 3108 3110 3113 3114 3116 3118 3119 3121 3123 3124 3126 3128 3131 3134 3136 3138 3140 3142 3143 3145 3146 3147 3148 3150 3151 3152 3154 3155 3157 3158 3159 3160 3161 3163 3164 3165 3166 3167 3167 3168 3169 3169 3170 3170 3171 3171 3171 3171 3172 3172 3173 3173 3172 3173 3175 3175 3175 3175 3175 3175 3175 3176 3176 3176 3176 3176 3177 3177 3178 3179
3065 3068 3070 3072 3075 3077 3080 3082 3085 3087 3089 3091 3094 3096 3098 3100 3102 3104 3106 3108 3111 3113 3115 3116 3117 3119 3121 3122 3124 3127 3130 3133 3135 3137 3139 3141 3142 3144 3145 3146 3147 3149 3150 3151 3153 3154 3155 3157 3158 3159 3160 3161 3162 3163 3164 3166 3166 3167 3168 3169 3169 3170 3170 3170 3170 3170 3171 3171 3172 3172 3170 3171 3173 3173 3173 3173 3173 3173 3173 3174 3175 3175 3175 3175 3175 3175 3176 3176
3064 3066 3068 3071 3073 3076 3078 3080 3083 3085 3087 3090 3092 3094 3096 3099 3101 3102 3104 3106 3108 3110 3112 3113 3114 3117 3118 3120 3124 3127 3129 3131 3133 3135 3137 3139 3141 3143 3144 3145 3146 3147 3148 3150 3151 3153 3154 3155 3156 3157 3159 3160 3161 3162 3163 3165 3165 3166 3167 3168 3169 3169 3169 3169 3170 3169 3170 3170 3170 3170 3168 3168 3169 3171 3172 3172 3171 3170 3170 3171 3172 3173 3173 3174 3174 3174 3174 3174
3062 3065 3067 3069 3072 3074 3076 3079 3081 3083 3086 3088 3090 3092 3094 3096 3098 3099 3101 3104 3106 3108 3109 3110 3112 3115 3118 3120 3123 3125 3127 3129 3131 3134 3136 3138 3140 3141 3143 3144 3145 3146 3147 3149 3150 3152 3153 3154 3154 3156 3158 3159 3160 3162 3163 3164 3164 3165 3166 3167 3167 3168 3168 3169 3169 3168 3169 3169 3168 3168 3166 3165 3166 3168 3169 3170 3169 3168 3168 3169 3170 3171 3172 3172 3172 3172 3172 3173
3061 3063 3065 3068 3070 3073 3075 3077 3079 3082 3084 3086 3089 3091 3092 3094 3096 3097 3100 3102 3105 3106 3108 3109 3112 3114 3117 3120 3122 3124 3126 3128 3130 3133 3135 3136 3138 3140 3141 3142 3143 3145 3146 3148 3149 3151 3152 3152 3153 3156 3157 3158 3160 3161 3162 3162 3163 3164 3165 3166 3167 3167 3167 3168 3168 3167 3167 3167 3166 3166 3164 3162 3163 3165 3166 3167 3167 3166 3167 3167 3168 3169 3169 3170 3170 3171 3171 3171
3059 3061 3064 3067 3069 3071 3074 3076 3078 3080 3083 3085 3087 3088 3091 3093 3095 3098 3100 3102 3104 3105 3107 3109 3111 3113 3116 3119 3121 3123 3124 3126 3129 3131 3133 3134 3136 3138 3140 3141 3142 3144 3145 3146 3148 3149 3150 3151 3153 3155 3156 3157 3158 3159 3160 3161 3162 3163 3164 3165 3166 3166 3166 3166 3167 3166 3166 3166 3165 3164 3162 3159 3161 3162 3163 3164 3164 3164 3165 3165 3166 3166 3167 3168 3168 3169 3169 3169
3057 3060 3062 3065 3067 3070 3072 3074 3077 3079 3081 3083 3085 3087 3090 3093 3095 3097 3099 3101 3103 3105 3106 3108 3110 3113 3116 3118 3119 3121 3123 3125 3128 3129 3131 3133 3135 3137 3138 3139 3142 3143 3143 3145 3147 3148 3149 3151 3152 3153 3154 3156 3157 3158 3159 3160 3161 3162 3163 3163 3164 3165 3165 3165 3166 3166 3165 3165 3164 3163 3160 3157 3158 3159 3160 3162 3162 3162 3163 3163 3164 3165 3165 3166 3167 3167 3167 3167
3055 3058 3060 3063 3065 3068 3071 3073 3075 3078 3080 3082 3084 3087 3089 3092 3094 3096 3098 3100 3101 3103 3105 3107 3109 3112 3114 3116 3118 3120 3122 3124 3126 3128 3130 3131 3133 3135 3136 3139 3141 3141 3142 3144 3146 3147 3148 3150 3151 3152 3153 3154 3155 3156 3157 3158 3160 3160 3161 3162 3163 3163 3164 3164 3164 3165 3164 3164 3163 3162 3158 3154 3155 3156 3157 3159 3160 3159 3160 3161 3162 3163 3163 3164 3165 3165 3165 3165
3053 3055 3058 3061 3064 3066 3069 3072 3073 3076 3078 3080 3083 3085 3087 3090 3093 3095 3097 3099 3100 3101 3103 3105 3107 3109 3112 3115 3117 3118 3120 3122 3124 3126 3128 3130 3132 3133 3136 3138 3139 3139 3141 3143 3145 3145 3146 3148 3149 3150 3152 3153 3154 3155 3156 3157 3158 3159 3159 3160 3161 3162 3162 3162 3163 3164 3163 3163 3162 3162 3159 3153 3151 3153 3155 3156 3157 3158 3158 3159 3160 3161 3161 3162 3163 3163 3163 3163
3051 3053 3056 3058 3061 3064 3067 3069 3071 3074 3076 3079 3081 3083 3086 3088 3091 3094 3096 3098 3098 3098 3100 3101 3104 3106 3109 3112 3114 3116 3118 3120 3122 3124 3126 3128 3130 3132 3134 3136 3137 3139 3140 3142 3143 3143 3144 3146 3148 3149 3150 3151 3152 3153 3155 3156 3157 3157 3157 3158 3160 3160 3161 3161 3162 3163 3162 3161 3160 3161 3161 3154 3148 3148 3152 3154 3155 3156 3157 3157 3158 3158 3159 3160 3161 3161 3161 3161
3049 3052 3054 3057 3059 3062 3064 3067 3069 3071 3074 3077 3079 3081 3084 3087 3090 3092 3095 3098 3096 3094 3097 3099 3101 3103 3105 3109 3111 3113 3115 3117 3120 3122 3124 3126 3128 3130 3132 3133 3135 3138 3139 3141 3141 3141 3142 3144 3146 3147 3149 3150 3151 3152 3154 3154 3155 3156 3156 3157 3158 3159 3160 3160 3161 3161 3161 3160 3159 3159 3161 3158 3148 3144 3148 3151 3151 3153 3155 3156 3156 3156 3157 3158 3158 3159 3158 3158
3047 3050 3052 3055 3057 3060 3062 3065 3067 3069 3072 3075 3077 3080 3083 3086 3089 3091 3094 3097 3093 3090 3093 3095 3098 3100 3104 3107 3109 3111 3113 3114 3118 3120 3121 3125 3126 3128 3131 3132 3135 3137 3138 3138 3139 3139 3141 3143 3145 3146 3147 3148 3149 3152 3152 3153 3154 3154 3155 3157 3157 3158 3159 3159 3160 3160 3160 3158 3157 3157 3159 3159 3149 3142 3145 3148 3148 3150 3152 3153 3154 3154 3155 3155 3156 3156 3156 3156
3046 3048 3050 3052 3055 3057 3060 3063 3065 3068 3071 3074 3076 3079 3081 3085 3088 3090 3094 3094 3088 3086 3089 3092 3095 3098 3100 3104 3106 3108 3110 3113 3116 3118 3120 3123 3124 3126 3129 3131 3134 3136 3136 3137 3138 3139 3140 3142 3143 3144 3146 3147 3148 3150 3151 3152 3153 3153 3155 3155 3156 3158 3157 3159 3159 3158 3159 3156 3153 3155 3157 3156 3147 3140 3143 3145 3146 3148 3149 3150 3151 3152 3153 3153 3154 3154 3154 3154
3044 3046 3048 3050 3052 3055 3058 3061 3064 3067 3070 3072 3074 3077 3080 3083 3085 3089 3092 3088 3083 3084 3087 3088 3091 3093 3096 3100 3102 3105 3107 3110 3114 3116 3118 3120 3122 3125 3127 3129 3131 3133 3133 3135 3136 3137 3138 3140 3142 3143 3144 3145 3147 3148 3149 3151 3151 3152 3154 3154 3156 3157 3157 3158 3157 3158 3159 3153 3150 3153 3155 3154 3146 3138 3139 3143 3144 3146 3147 3149 3149 3149 3150 3151 3152 3153 3152 3152
3041 3044 3047 3048 3050 3053 3056 3059 3061 3065 3068 3070 3073 3075 3078 3081 3083 3085 3085 3082 3080 3082 3083 3085 3088 3090 3093 3096 3098 3101 3104 3107 3111 3114 3115 3117 3120 3122 3124 3125 3127 3130 3131 3132 3134 3135 3136 3138 3140 3141 3142 3143 3145 3146 3147 3149 3149 3151 3152 3153 3155 3156 3157 3157 3156 3157 3157 3150 3148 3150 3152 3152 3144 3135 3137 3142 3143 3144 3146 3147 3147 3147 3148 3149 3150 3151 3151 3151
3039 3042 3044 3047 3049 3051 3054 3057 3060 3063 3066 3068 3071 3073 3076 3079 3080 3079 3077 3077 3079 3079 3080 3082 3085 3087 3091 3094 3096 3099 3102 3105 3108 3111 3113 3115 3117 3119 3121 3121 3123 3126 3128 3129 3131 3133 3134 3136 3137 3139 3140 3141 3142 3144 3145 3147 3148 3149 3151 3153 3155 3156 3157 3156 3155 3156 3153 3148 3148 3149 3151 3147 3135 3130 3136 3140 3141 3143 3144 3145 3145 3145 3146 3147 3148 3149 3149 3148
3036 3039 3042 3044 3047 3049 3051 3055 3058 3061 3063 3066 3069 3071 3074 3076 3074 3071 3072 3074 3076 3075 3077 3081 3083 3086 3089 3091 3094 3097 3100 3103 3106 3108 3111 3113 3115 3117 3119 3120 3120 3123 3124 3126 3129 3131 3132 3133 3134 3135 3136 3138 3139 3141 3143 3144 3146 3147 3148 3150 3152 3154 3156 3155 3154 3153 3150 3146 3146 3148 3150 3141 3129 3129 3134 3135 3138 3141 3141 3142 3142 3143 3144 3145 3146 3147 3146 3146
3034 3037 3039 3042 3045 3047 3050 3053 3056 3059 3062 3064 3067 3069 3071 3070 3066 3066 3070 3072 3073 3074 3076 3078 3081 3085 3087 3089 3091 3094 3097 3100 3103 3106 3108 3110 3112 3113 3115 3116 3118 3120 3122 3125 3126 3127 3129 3129 3130 3132 3134 3135 3137 3138 3141 3143 3144 3145 3146 3147 3147 3148 3150 3150 3150 3150 3146 3145 3145 3147 3145 3135 3128 3130 3131 3131 3135 3138 3139 3140 3141 3141 3143 3144 3144 3145 3144 3144
3031 3034 3037 3040 3042 3045 3048 3051 3054 3057 3060 3062 3064 3065 3065 3063 3062 3065 3068 3070 3072 3073 3074 3077 3080 3083 3085 3088 3090 3092 3095 3097 3100 3103 3104 3106 3107 3108 3111 3113 3114 3117 3120 3122 3123 3124 3125 3126 3127 3130 3131 3133 3135 3137 3139 3141 3142 3142 3144 3145 3143 3143 3145 3146 3147 3145 3145 3145 3144 3142 3137 3128 3126 3129 3129 3132 3134 3136 3138 3139 3140 3141 3141 3142 3143 3143 3142 3141
3028 3031 3034 3037 3039 3042 3045 3047 3050 3054 3056 3058 3061 3060 3058 3058 3060 3064 3067 3069 3071 3072 3073 3076 3079 3081 3083 3085 3087 3090 3092 3094 3097 3100 3101 3103 3104 3106 3108 3110 3112 3114 3115 3118 3120 3121 3123 3124 3125 3128 3129 3131 3133 3134 3136 3137 3138 3139 3139 3138 3139 3141 3144 3145 3145 3144 3146 3145 3139 3135 3130 3125 3126 3125 3125 3129 3131 3133 3136 3136 3137 3139 3139 3140 3141 3140 3139 3139
3026 3028 3031 3034 3036 3039 3042 3044 3048 3050 3052 3054 3055 3054 3054 3057 3060 3063 3066 3067 3069 3071 3072 3074 3076 3078 3080 3082 3084 3086 3089 3092 3095 3096 3098 3100 3101 3102 3104 3107 3109 3111 3113 3116 3117 3118 3121 3122 3123 3124 3126 3127 3130 3131 3132 3133 3134 3135 3134 3135 3138 3141 3142 3144 3144 3143 3145 3144 3136 3130 3126 3125 3126 3123 3121 3126 3128 3129 3132 3133 3135 3137 3138 3138 3137 3137 3137 3137
3024 3026 3029 3031 3034 3037 3039 3042 3044 3046 3047 3049 3050 3050 3051 3054 3058 3061 3063 3064 3067 3069 3070 3072 3074 3076 3078 3079 3081 3084 3086 3089 3091 3093 3095 3097 3097 3098 3100 3103 3105 3108 3110 3114 3115 3116 3118 3119 3120 3121 3123 3125 3127 3128 3128 3129 3130 3131 3132 3134 3137 3138 3139 3141 3142 3141 3143 3143 3135 3127 3125 3123 3120 3118 3120 3125 3127 3127 3129 3131 3133 3134 3133 3133 3133 3134 3134 3134
3022 3024 3026 3029 3032 3034 3037 3039 3041 3043 3044 3046 3047 3047 3047 3051 3056 3059 3060 3062 3064 3066 3068 3070 3072 3074 3076 3077 3079 3081 3084 3085 3087 3090 3092 3094 3094 3095 3097 3100 3102 3105 3108 3110 3112 3114 3116 3117 3117 3118 3120 3122 3123 3123 3123 3123 3126 3129 3131 3133 3134 3134 3136 3136 3138 3137 3138 3140 3135 3127 3124 3117 3112 3114 3118 3122 3124 3125 3125 3127 3129 3129 3129 3129 3131 3131 3132 3132
3020 3022 3024 3027 3029 3032 3035 3037 3039 3039 3039 3042 3044 3044 3045 3050 3054 3057 3059 3060 3061 3063 3066 3068 3070 3071 3074 3075 3077 3079 3081 3083 3085 3087 3088 3090 3092 3093 3095 3097 3099 3101 3105 3107 3109 3112 3114 3114 3114 3115 3117 3118 3118 3118 3119 3121 3124 3126 3127 3129 3130 3131 3133 3133 3134 3134 3134 3136 3135 3130 3123 3110 3107 3115 3118 3119 3121 3121 3122 3124 3125 3126 3126 3127 3128 3129 3129 3129
3017 3019 3021 3024 3027 3029 3032 3034 3035 3036 3036 3038 3040 3042 3044 3048 3052 3055 3057 3058 3059 3061 3063 3065 3067 3069 3071 3072 3075 3077 3079 3081 3082 3084 3086 3087 3089 3091 3092 3095 3097 3099 3102 3104 3105 3108 3110 3111 3111 3112 3113 3113 3114 3117 3120 3121 3122 3122 3122 3124 3125 3126 3129 3130 3131 3130 3131 3132 3130 3130 3123 3105 3103 3114 3117 3117 3120 3120 3120 3122 3122 3124 3124 3125 3126 3126 3126 3126
3013 3015 3018 3021 3024 3026 3029 3030 3032 3033 3034 3035 3037 3039 3042 3045 3048 3052 3055 3056 3057 3058 3060 3062 3064 3066 3068 3069 3071 3074 3076 3078 3080 3081 3083 3085 3087 3089 3091 3093 3095 3097 3098 3100 3102 3104 3107 3108 3109 3109 3109 3111 3114 3116 3118 3118 3119 3120 3120 3120 3121 3123 3123 3125 3126 3126 3128 3129 3127 3130 3123 3102 3098 3111 3114 3114 3118 3119 3120 3121 3121 3123 3123 3124 3125 3124 3124 3124
3009 3012 3015 3018 3021 3023 3026 3027 3029 3030 3030 3032 3035 3037 3040 3042 3045 3049 3051 3053 3054 3056 3057 3059 3061 3064 3065 3067 3069 3071 3073 3075 3077 3079 3081 3083 3085 3087 3089 3091 3093 3095 3096 3097 3099 3102 3104 3105 3106 3107 3107 3109 3111 3113 3114 3115 3116 3116 3116 3117 3118 3119 3120 3121 3124 3124 3125 3125 3124 3128 3122 3100 3094 3107 3111 3111 3115 3117 3118 3120 3120 3122 3122 3122 3122 3122 3121 3121
3006 3009 3012 3015 3017 3020 3021 3022 3024 3026 3027 3029 3032 3034 3037 3039 3041 3044 3046 3049 3051 3052 3054 3056 3059 3061 3063 3065 3067 3068 3070 3072 3074 3076 3078 3080 3082 3084 3086 3088 3090 3092 3093 3094 3096 3098 3100 3101 3102 3104 3106 3107 3108 3109 3109 3110 3111 3111 3112 3114 3114 3116 3119 3120 3122 3123 3122 3121 3121 3122 3115 3099 3094 3103 3106 3107 3111 3113 3114 3117 3117 3118 3118 3118 3118 3117 3117 3117
3003 3005 3008 3011 3014 3016 3017 3018 3021 3023 3025 3027 3029 3031 3034 3036 3037 3040 3043 3046 3048 3050 3051 3053 3056 3059 3060 3062 3064 3065 3067 3069 3071 3073 3075 3077 3079 3081 3083 3084 3087 3088 3090 3092 3093 3094 3096 3096 3097 3099 3100 3102 3102 3102 3103 3104 3107 3108 3108 3110 3111 3113 3115 3116 3118 3120 3117 3115 3115 3113 3108 3099 3094 3099 3103 3105 3107 3108 3110 3112 3113 3113 3113 3113 3113 3113 3113 3113
3000 3002 3004 3007 3010 3012 3013 3015 3018 3020 3022 3024 3026 3028 3030 3032 3034 3037 3040 3042 3045 3047 3049 3050 3053 3055 3057 3059 3061 3062 3064 3066 3068 3070 3072 3074 3076 3078 3080 3082 3084 3085 3087 3089 3090 3092 3092 3093 3094 3094 3094 3095 3096 3097 3099 3100 3103 3104 3104 3107 3108 3110 3111 3112 3114 3112 3110 3110 3108 3105 3105 3100 3093 3093 3098 3103 3104 3105 3106 3107 3108 3109 3109 3108 3108 3109 3109 3109
2997 2999 3001 3004 3006 3008 3009 3012 3014 3016 3019 3021 3022 3024 3027 3029 3031 3034 3036 3039 3041 3044 3046 3047 3049 3050 3051 3054 3057 3059 3060 3062 3064 3066 3069 3071 3073 3075 3077 3079 3081 3082 3084 3086 3087 3088 3089 3089 3090 3091 3091 3093 3095 3096 3097 3097 3098 3100 3101 3103 3104 3106 3107 3108 3106 3104 3106 3107 3101 3098 3102 3100 3091 3088 3092 3098 3102 3102 3103 3103 3102 3103 3104 3104 3105 3105 3104 3104
2993 2995 2998 3001 3003 3004 3005 3008 3010 3013 3015 3017 3019 3021 3024 3026 3028 3030 3032 3035 3038 3040 3043 3044 3045 3046 3048 3050 3053 3055 3057 3060 3061 3062 3065 3067 3069 3072 3074 3075 3077 3079 3080 3082 3084 3085 3086 3086 3087 3088 3089 3091 3093 3094 3094 3095 3095 3097 3098 3099 3100 3102 3102 3102 3100 3100 3102 3101 3095 3095 3099 3097 3092 3088 3088 3092 3097 3099 3099 3098 3097 3098 3099 3101 3101 3100 3099 3099
2990 2992 2995 2997 2999 3000 3003 3005 3008 3009 3011 3014 3016 3017 3020 3022 3024 3026 3029 3032 3033 3036 3038 3039 3041 3043 3045 3047 3049 3051 3053 3055 3056 3058 3061 3064 3065 3068 3070 3071 3073 3075 3076 3077 3079 3081 3083 3083 3085 3087 3087 3088 3089 3091 3092 3092 3093 3094 3095 3096 3097 3098 3098 3097 3096 3096 3097 3096 3093 3094 3094 3090 3089 3088 3086 3088 3092 3094 3095 3095 3095 3094 3095 3096 3096 3095 3094 3093
2987 2989 2991 2993 2995 2997 2999 3001 3004 3006 3008 3010 3011 3013 3015 3017 3019 3022 3025 3027 3029 3031 3034 3036 3037 3040 3043 3044 3046 3047 3049 3051 3053 3055 3058 3061 3061 3063 3066 3067 3069 3071 3073 3074 3075 3077 3079 3081 3082 3084 3085 3084 3085 3087 3088 3089 3089 3090 3091 3093 3094 3094 3093 3092 3091 3091 3092 3091 3090 3091 3089 3083 3083 3087 3088 3087 3088 3090 3092 3093 3092 3092 3091 3091 3091 3091 3090 3089
2983 2985 2988 2990 2991 2993 2995 2996 2999 3001 3004 3006 3007 3009 3012 3013 3016 3020 3021 3023 3026 3028 3031 3033 3035 3038 3040 3042 3043 3045 3047 3050 3051 3053 3055 3057 3058 3060 3062 3063 3065 3067 3069 3070 3072 3073 3075 3077 3078 3080 3081 3079 3079 3082 3083 3084 3085 3085 3085 3085 3086 3086 3086 3086 3087 3088 3088 3087 3086 3087 3084 3080 3081 3086 3088 3086 3084 3085 3088 3089 3087 3087 3087 3087 3086 3085 3085 3084
2979 2981 2984 2986 2987 2989 2991 2993 2995 2996 2998 3001 3003 3006 3009 3011 3014 3017 3019 3020 3023 3025 3028 3031 3033 3035 3036 3038 3040 3043 3046 3048 3049 3050 3052 3054 3056 3057 3058 3059 3061 3063 3065 3067 3068 3069 3071 3072 3073 3075 3076 3074 3075 3077 3078 3081 3081 3079 3076 3075 3078 3080 3080 3081 3082 3083 3083 3082 3082 3081 3079 3080 3083 3085 3084 3082 3081 3082 3083 3083 3082 3081 3081 3081 3081 3080 3079 3078